{"data":{"norad_id":59539,"intl_designator":"2024-074F","name":"STARLINK-31539","alt_names":[],"object_type":"PAYLOAD","status":"ACTIVE","operator":null,"country":"US","launch_date":"2024-04-18","launch_site_code":"AFETR","launch_vehicle":null,"mission":null,"orbit_class":"UNKNOWN","rcs_meters":null,"size_class":null,"mass_kg":null,"dimensions":null,"purposes":["comms"],"wikipedia_slug":null,"has_3d_model":false,"image_url":null,"decayed_at":null,"tle_current":{"epoch":"2026-05-25T01:30:02.523744Z","epoch_age_seconds":76553,"freshness":"FRESH","line1":"1 59539U 24074F   26145.06252921  .00000437  00000+0  25419-4 0  9991","line2":"2 59539  43.0038 272.2900 0001323 282.7818  77.2886 15.27579572117690","mean_motion":15.27579572,"eccentricity":0.0001323,"inclination_deg":43.0038,"raan_deg":272.29,"arg_perigee_deg":282.7818,"mean_anomaly_deg":77.2886,"bstar":2.5419e-5,"rev_number":11769,"period_min":94.266775125479,"perigee_km":482.14264253586,"apogee_km":483.95811271598,"semimajor_km":6861.1873776259,"source":"CELESTRAK","updated_at":"2026-05-25T13:38:18.979447Z"}}}